Grand Junction, CO

9:34 AM MDT on April 25, 2018 (GMT -0600)
Walker

Weather History for KGJT - November, 2012

Change the Weather History Date:

Wednesday, November 7, 2012

  Actual Average Record
Temperature  
Mean Temperature 49 °F 43 °F  
Max Temperature 66 °F 55 °F 73 °F (1917)
Min Temperature 32 °F 31 °F 16 °F (1938)
Degree Days  
Heating Degree Days 16 22  
Month to date heating degree days 105 142  
Since 1 July heating degree days 514 590  
Cooling Degree Days 0 0  
Month to date cooling degree days 0 0  
Year to date cooling degree days 1515 1125  
Moisture  
Dew Point 23 °F    
Average Humidity 41    
Maximum Humidity 61    
Minimum Humidity 20    
Precipitation  
Precipitation 0.00 in 0.03 in 0.63 in (1929)
Month to date precipitation 0.00 0.20  
Year to date precipitation 3.31 8.30  
Snow  
Snow 0.00 in 0.10 in 4.20 in (1929)
Month to date snowfall 0.0 0.3  
Since 1 July snowfall 0.0 0.7  
Since 1 September snowfall 0.0 0.7  
Snow Depth 0.00 in    
Sea Level Pressure  
Sea Level Pressure 30.07 in    
Wind  
Wind Speed 5 mph (East)    
Max Wind Speed 16 mph    
Max Gust Speed 17 mph    
Visibility 10 miles    
Events      
T = Trace of Precipitation, MM = Missing Value Source: NWS Daily Summary

Daily Weather History Graph

Daily Weather History Graph

Search for Another Location

Airport or City:

Astronomy

Nov. 07, 2012 Rise Set
Actual Time 6:48 AM MST 5:06 PM MST
Civil Twilight 6:20 AM MST 5:34 PM MST
Nautical Twilight 5:48 AM MST 6:06 PM MST
Astronomical Twilight 5:17 AM MST 6:37 PM MST
Moon No Moon Rise 1:14 PM MST (11/7)
Length of Visible Light 11h 13m
Length of Day
10h 17m
Last Quarter, 42% of the Moon is Illuminated
Nov 7
Last Quarter
Nov 13
New
Nov 20
First Quarter
Nov 28
Full
Dec 6
Last Quarter

Hourly Weather History & Observations

Time (MST) Temp. Windchill Dew Point Humidity Pressure Visibility Wind Dir Wind Speed Gust Speed Precip Events Conditions
12:53 AM 45.0 °F 38.9 °F 23.0 °F 42% 30.14 in 10.0 mi ESE 12.7 mph - N/A   Clear
1:53 AM 41.0 °F - 23.0 °F 49% 30.15 in 10.0 mi Calm Calm - N/A   Clear
2:53 AM 41.0 °F 37.1 °F 21.9 °F 47% 30.14 in 10.0 mi East 5.8 mph - N/A   Clear
3:53 AM 37.0 °F 32.4 °F 21.9 °F 54% 30.14 in 10.0 mi East 5.8 mph - N/A   Clear
4:53 AM 39.0 °F 32.3 °F 23.0 °F 53% 30.15 in 10.0 mi ESE 10.4 mph - N/A   Clear
5:53 AM 34.0 °F 31.0 °F 21.0 °F 59% 30.19 in 10.0 mi East 3.5 mph - N/A   Clear
6:53 AM 36.0 °F 32.1 °F 21.9 °F 57% 30.19 in 10.0 mi ESE 4.6 mph - N/A   Clear
7:53 AM 39.0 °F 34.8 °F 24.1 °F 55% 30.22 in 10.0 mi East 5.8 mph - N/A   Clear
8:53 AM 46.9 °F - 25.0 °F 42% 30.19 in 10.0 mi SE 6.9 mph - N/A   Clear
9:53 AM 51.1 °F - 25.0 °F 36% 30.16 in 10.0 mi Calm Calm - N/A   Clear
10:53 AM 55.0 °F - 25.0 °F 31% 30.13 in 10.0 mi Calm Calm - N/A   Clear
11:53 AM 59.0 °F - 23.0 °F 25% 30.07 in 10.0 mi Calm Calm - N/A   Clear
12:53 PM 63.0 °F - 21.9 °F 21% 30.02 in 10.0 mi WNW 4.6 mph - N/A   Clear
1:53 PM 64.0 °F - 24.1 °F 22% 30.00 in 10.0 mi Variable 3.5 mph - N/A   Clear
2:53 PM 64.0 °F - 24.1 °F 22% 29.97 in 10.0 mi WNW 5.8 mph - N/A   Clear
3:53 PM 64.9 °F - 23.0 °F 20% 29.97 in 10.0 mi NW 8.1 mph - N/A   Clear
4:53 PM 60.1 °F - 23.0 °F 24% 29.96 in 10.0 mi WNW 5.8 mph - N/A   Clear
5:53 PM 51.1 °F - 19.9 °F 29% 30.00 in 10.0 mi Calm Calm - N/A   Clear
6:53 PM 46.0 °F - 18.0 °F 33% 30.02 in 10.0 mi Calm Calm - N/A   Clear
7:53 PM 46.9 °F - 19.0 °F 33% 30.01 in 10.0 mi ENE 6.9 mph - N/A   Clear
8:53 PM 48.9 °F - 23.0 °F 36% 29.98 in 10.0 mi East 5.8 mph - N/A   Clear
9:53 PM 44.1 °F 40.1 °F 21.9 °F 42% 29.98 in 10.0 mi East 6.9 mph - N/A   Clear
10:53 PM 48.9 °F - 21.9 °F 35% 29.95 in 10.0 mi ESE 13.8 mph - N/A   Clear